Tracking 26492 objects as of 8-Dec-2022
HD Live streaming from Space Station
objects crossing your sky now

CZ-6 R/B

Track CZ-6 R/B now!
10-day predictions


NORAD ID: 44784
Int'l Code: 2019-076F
Perigee: 777.5 km
Apogee: 904.2 km
Inclination: 45.0 °
Period: 101.6 minutes
Semi major axis: 7211 km
RCS: Unknown
Launch date: November 13, 2019
Source: People's Republic of China (PRC)
Launch site: Taiyaun Space Center, China (TSC)

Note: This is a ROCKET BODY
aabbcc
Your satellite tracking list
Your tracking list is empty




NASA's NSSDC Master Catalog

Two Line Element Set (TLE):
1 44784U 19076F   22342.11506881  .00000088  00000-0  10591-3 0  9998
2 44784  45.0081  36.1789 0087814  43.5923 317.1814 14.17528218159037
Source of the keplerian elements: AFSPC